Location: Observatoire
(46.1952°N, 5.3391°E)
Time: 09:35:18
(UTC+01:00)

A-11 Canister half - Pass Details

Date: 21 February 2026
Orbit: 1524 x 1683 km, 47.3° (Epoch: 12 March)

Event Time Altitude Azimuth Distance (km) Brightness Sun altitude
Rises 16:56:50 0° 242° (WSW) 4,735 13.8 11.4°
Reaches altitude 10° 16:59:55 10° 241° (WSW) 3,735 15.7 11.0°
Maximum altitude 17:09:17 77° 158° (SSE) 1,566 9.3 9.5°
Drops below altitude 10° 17:18:34 10° 74° (ENE) 3,693 10.4 8.1°
Sets 17:21:36 0° 73° (ENE) 4,680 10.9 7.6°
